Location: Brodie Road Observatory
(45.4241°N, 74.5431°W)
Time: 22:34:45
(UTC-04:00)

Daily predictions for brighter satellites

Satellite Brightness Start Highest point End
(mag) Time Altitude Azimuth Time Altitude Azimuth Time Altitude Azimuth
Meteor 1-24 Rocket 3.8 19:37:46 10° N 19:43:18 87° E 19:49:00 10° S
SeaSat 1 2.5 19:42:49 10° SE 19:47:44 75° ENE 19:52:41 10° NNW
ALOS 2.3 19:48:59 10° SSE 19:53:39 84° ENE 19:58:21 10° NNW
Cosmos 1758 4.0 19:50:55 10° SSE 19:54:30 33° E 19:58:07 10° NNE
HJ-1C 3.4 19:52:42 10° SSE 19:56:05 78° ENE 19:59:32 10° N
Cosmos 1937 Rocket 4.1 19:51:47 10° SSW 19:57:00 65° WNW 20:02:18 10° NNE
SL-27 R/B 4.0 19:57:30 10° NW 20:00:54 40° WSW 20:04:17 10° S
CZ-3B DEB 3.0 19:49:44 10° SW 20:01:15 84° NW 20:06:20 10° NE
Helios 1B rocket 3.6 19:58:05 10° NE 20:01:19 22° E 20:04:32 10° SE
Cosmos 1934 Rocket 4.0 19:55:12 10° S 20:01:20 90° NE 20:07:27 10° N
Cosmos 1953 2.9 19:57:55 10° SSE 20:01:41 37° E 20:05:26 10° NNE
Okean 3 Rocket 3.5 19:57:59 10° N 20:02:23 71° E 20:06:48 10° SSE
Cosmos 1271 Rocket 4.2 19:59:55 10° SE 20:02:51 20° E 20:05:46 10° NE
Cosmos 1076 Rocket 3.6 20:03:01 10° N 20:07:11 51° ENE 20:11:18 10° SSE
OE (NEXTSAT) 4.4 20:04:53 10° WSW 20:08:28 71° SSE 20:11:46 12° E
Cosmos 1766 3.6 20:04:48 10° SSW 20:08:40 69° W 20:12:34 10° N
Lacrosse 4 Rocket 3.6 20:07:14 10° WSW 20:10:42 27° NW 20:14:14 10° N
SAR-Lupe-4 4.1 20:07:38 10° SE 20:10:58 38° ENE 20:14:20 10° N
Cosmos 1939 Rocket 4.3 20:08:20 12° ESE 20:11:10 22° ENE 20:14:24 10° NNE
Meteor 1-29 4.3 20:09:35 10° NE 20:12:11 20° E 20:14:48 10° SE
Cosmos 1674 3.2 20:08:54 10° N 20:12:27 37° ENE 20:16:00 10° SE
Abrixas 3.8 20:10:41 10° W 20:13:15 31° SSW 20:15:43 11° SSE
Cosmos 1818 3.8 20:12:23 10° NW 20:17:50 74° WSW 20:23:14 10° SSE
COSMOS 2487 2.5 20:15:53 10° NNW 20:19:27 62° ENE 20:22:57 10° SSE
Lacrosse 5 rocket 1.5 20:15:59 10° NW 20:19:54 51° NE 20:22:31 18° ESE
Cosmos 1269 Rocket 4.0 20:16:01 10° NNW 20:21:19 76° ENE 20:26:36 10° SSE
Helios 1A 3.2 20:17:19 10° SSE 20:21:20 50° ENE 20:25:25 10° N
CZ-4B DEB 3.6 20:20:24 17° ESE 20:22:08 30° ENE 20:24:55 10° N
Cosmos 1766 Rocket 3.6 20:23:47 10° N 20:28:15 63° E 20:32:42 10° SSE
ISS -2.6 20:26:11 10° SSW 20:28:51 23° SE 20:29:21 22° ESE
SAR-Lupe-1 4.2 20:26:28 12° SSE 20:29:43 55° ENE 20:33:15 10° N
GP-B 3.2 20:26:46 10° SSE 20:31:06 56° E 20:35:27 10° N
Cosmos 372 Rocket 4.0 20:26:57 10° S 20:31:57 58° ESE 20:37:01 10° NNE
USA 215 4.0 20:27:38 10° ENE 20:33:08 28° SE 20:38:35 10° S
Cosmos 2344 4.0 20:25:32 10° SW 20:33:12 71° NW 20:42:12 10° NE
SS 2 4.4 20:30:31 10° NW 20:33:24 76° NE 20:35:03 25° SE
USA 186 0.6 20:33:15 24° SSE 20:34:27 84° ENE 20:36:40 10° N
CZ-2D R/B 3.5 20:30:48 10° S 20:34:40 73° W 20:38:34 10° NNW
Meteor 1-4 Rocket 2.5 20:31:42 10° SSW 20:35:10 82° W 20:38:41 10° N
Cosmos 158 Rocket 3.9 20:30:22 10° NNW 20:35:31 84° ENE 20:40:47 10° SSE
Cosmos-2242 3.1 20:32:33 10° S 20:36:39 50° E 20:40:48 10° NNE
Meteor 1-21 Rocket 4.3 20:31:05 10° N 20:36:57 89° W 20:42:51 10° S
Resurs 01 Rocket 2.5 20:34:30 10° S 20:38:48 52° W 20:43:09 10° NNW
Cosmos 1805 3.9 20:35:15 10° SSW 20:39:06 59° W 20:42:58 10° N
Cosmos 1833 Rocket 2.8 20:39:09 10° NNW 20:44:48 81° WSW 20:50:10 11° SSE
Cosmos 2098 Rocket 4.5 20:37:43 10° S 20:45:06 88° W 20:52:43 10° N
Cosmos 1544 4.2 20:42:16 10° SSW 20:45:48 46° WNW 20:49:22 10° N
Lacrosse 5 2.8 20:42:53 10° WSW 20:47:48 47° NNW 20:52:42 10° NE
Cosmos 2100 Rocket 4.0 20:43:41 10° S 20:49:56 66° E 20:56:15 10° NNE
Cosmos 1356 Rocket 4.0 20:46:30 10° N 20:50:17 34° ENE 20:51:04 31° E
Cosmos 2278 Rocket 3.6 20:49:30 10° SW 20:54:51 41° NW 21:00:14 10° NNE
SPOT 5 4.2 20:54:21 24° E 20:55:37 26° ENE 20:59:58 10° N
Cosmos 1867 3.6 20:50:26 10° SW 20:55:54 85° NW 21:01:25 10° NE
Cosmos 494 Rocket 4.2 20:51:05 10° NNW 20:56:03 48° ENE 20:58:07 31° ESE
Cosmos 1470 2.6 20:52:08 10° S 20:56:06 80° E 21:00:05 10° N
Cosmos 1743 Rocket 3.5 20:55:10 10° N 20:59:36 64° E 21:01:43 29° SSE
Cosmos 1733 3.1 20:55:57 10° S 20:59:48 84° E 21:03:43 10° N
BREEZE-M DEB (TANK) 3.7 20:56:47 10° SW 21:00:29 48° SE 21:12:37 10° ENE
Cosmos 1500 Rocket 3.7 20:56:46 10° N 21:00:57 48° ENE 21:01:59 39° ESE
ATLAS 5 CENTAUR R/B 1.7 20:56:49 10° SSW 21:01:31 73° SE 21:06:40 10° NE
Cosmos 1340 Rocket 2.8 21:00:57 10° NNW 21:04:59 79° W 21:07:16 25° S
USA 267 4.0 21:03:31 20° ENE 21:07:34 42° NNE 21:13:38 10° NW
Terra 4.1 21:09:03 10° NE 21:09:03 10° NE 21:09:30 10° NE
Envisat 3.0 21:05:45 17° S 21:09:46 82° WSW 21:14:53 10° NNW
SJ-11-01 4.3 21:07:56 22° S 21:11:04 84° WSW 21:15:49 10° NNW
Cosmos 2297 4.2 21:06:07 10° SW 21:11:47 62° WNW 21:17:30 10° NNE
Cosmos 1802 Rocket 3.8 21:06:17 10° S 21:12:23 77° E 21:18:35 10° N
Cosmos 1184 Rocket 2.7 21:11:37 10° N 21:15:02 85° E 21:15:03 85° E
Geosat 4.4 21:15:28 10° NNE 21:20:28 65° WNW 21:25:26 10° SW
H-2A R/B 3.3 21:21:37 25° ENE 21:21:37 25° ENE 21:25:49 10° N
Cosmos 2058 3.4 21:17:57 10° N 21:21:29 43° NE 21:21:29 43° NE
Cosmos 2082 Rocket 3.5 21:17:28 10° NW 21:22:39 37° WSW 21:27:46 10° S
ERS-1 Rocket 2.8 21:23:19 44° SSE 21:24:57 78° ENE 21:30:00 10° NNW
CZ-3 Stage 3 4.1 20:57:59 10° W 21:25:23 37° SSW 21:29:16 26° SSE
Meteor 1-11 4.1 21:21:47 10° N 21:27:23 74° ENE 21:29:11 44° SSE
Cosmos 2061 Rocket 4.2 21:21:27 10° SSW 21:27:50 77° W 21:34:20 10° N
MetOp-A 4.2 21:28:59 51° ESE 21:29:59 60° ENE 21:35:16 10° N
SL-14 R/B 3.1 21:26:28 10° N 21:30:21 85° W 21:30:24 84° SW
Cosmos 2151 2.8 21:28:23 10° N 21:32:36 76° ENE 21:32:36 76° ENE
ARGOS 3.4 21:32:39 46° E 21:33:02 46° ENE 21:38:08 10° N
Meteor 1-16 Rocket 4.2 21:29:39 13° S 21:34:53 84° E 21:40:52 10° NNE
Cosmos 1328 4.1 21:31:21 10° NNW 21:35:17 64° W 21:35:46 58° SW
Cosmos 1842 Rocket 3.5 21:34:36 47° SSW 21:35:51 83° W 21:40:16 10° N
Helios 1B rocket 4.1 21:32:57 10° N 21:36:43 35° WNW 21:40:27 10° SW
Cosmos 1271 Rocket 4.4 21:34:58 10° SW 21:38:38 34° WNW 21:42:22 10° N
Cosmos 1459 Rocket 4.5 21:32:34 10° SSW 21:38:43 59° WNW 21:44:49 10° N
BREEZE-M DEB (TANK) 4.0 21:40:15 10° WNW 21:41:29 30° WNW 21:41:29 30° WNW
Cosmos 1939 Rocket 4.3 21:44:14 26° SW 21:45:53 36° W 21:49:45 10° NNW
Cosmos 2233 Rocket 4.1 21:46:50 52° E 21:46:50 52° E 21:52:38 10° NNE
YAOGAN 6 3.3 21:47:36 53° WNW 21:47:36 53° WNW 21:50:54 10° NNW
USA 245 4.3 21:47:09 61° ESE 21:47:50 66° ENE 21:54:05 10° N
Cosmos 1864 Rocket 4.4 21:48:07 33° S 21:51:13 87° E 21:57:34 10° N
Meteor 2-1 Rocket 4.1 21:51:15 69° ESE 21:51:28 70° E 21:57:07 10° NNE
YAOGAN 11 4.3 21:56:23 75° WNW 21:56:23 75° WNW 22:00:45 10° NNW
Lacrosse 5 rocket 3.2 21:55:46 10° WNW 21:58:14 22° WSW 21:58:14 22° WSW
Cosmos 2251 Rocket 4.2 21:55:04 10° NNW 22:00:13 50° WSW 22:01:24 42° SW
ISS -0.7 22:01:53 10° WSW 22:02:05 11° WSW 22:02:05 11° WSW
SPOT 1/Viking Rocket 3.8 22:05:57 61° NNE 22:05:57 61° NNE 22:10:29 10° N
CZ-3B DEB 3.4 22:07:36 10° WNW 22:13:24 27° NNW 22:14:42 23° N
Cosmos 2369 Rocket 3.3 22:18:38 32° NNE 22:18:38 32° NNE 22:21:36 10° NNE
USA 215 3.1 22:10:05 10° NE 22:16:39 88° NW 22:23:12 10° SW
Cosmos 1626 4.3 22:12:57 10° NNW 22:14:33 24° NNW 22:14:33 24° NNW
Cosmos 2227 Rocket 4.5 22:26:21 10° N 22:28:52 13° NE 22:29:03 13° NE
Cosmos 2221 4.3 22:33:37 28° NNW 22:33:37 28° NNW 22:35:54 10° N
Lacrosse 5 3.9 22:27:46 10° WNW 22:31:49 23° N 22:33:47 19° NNE
SPOT 5 3.8 22:33:35 49° W 22:33:35 49° W 22:38:32 10° NNW
H-2A R/B 4.2 22:40:21 22° NNW 22:40:21 22° NNW 22:41:50 10° NNW
Cosmos 1943 Rocket 4.3 22:48:27 17° NNE 22:48:27 17° NNE 22:49:39 10° NNE
Terra 3.5 22:47:55 29° N 22:47:55 29° N 22:50:16 10° N
ATLAS 5 CENTAUR R/B 4.0 22:42:44 10° W 22:46:47 25° NNW 22:51:09 10° NNE
USA 267 3.3 22:50:51 76° WNW 22:50:51 76° WNW 22:56:49 10° NW
H-2A R/B 3.3 23:02:15 39° NW 23:02:15 39° NW 23:05:53 10° NNW
Cosmos 2297 Rocket 4.2 23:42:58 10° N 23:45:30 22° N 23:45:30 22° N
ATLAS 3B R/B 4.3 23:53:25 27° NE 23:53:25 27° NE 23:56:21 10° NE
